Orbital Elements at Epoch 2459000.5 (2020-May-31.0) TDB
Reference: JPL 21 (heliocentric ecliptic J2000)
Element | Value | Uncertainty (1-sigma) | Units |
e | .1246551264004314 | 3.6523e-08 | |
a | 3.10095002191399 | 1.9172e-08 | au |
q | 2.714400704970881 | 1.1719e-07 | au |
i | .7425853622520907 | 4.6716e-06 | deg |
node | 160.791444447337 | 0.00029577 | deg |
peri | 139.6345220304046 | 0.00029631 | deg |
M | 343.9117489852167 | 1.8558e-05 | deg |
tp | 2459089.634721095339 (2020-Aug-28.13472110) | 0.00010305 | TDB |
period | 1994.530018510793 5.46 | 1.8497e-05 5.064e-08 | d yr |
n | .1804936484579923 | 1.6739e-09 | deg/d |
Q | 3.487499338857099 | 2.1562e-08 | au |
|
| | Orbit Determination Parameters
Additional Information
|